Coober Pedy Airport, Australia

3:13 AM ACDT on February 20, 2018 (GMT +1030)
Coober Pedy

Weather History for YCBP - May, 2014

Change the Weather History Date:

Thursday, May 8, 2014

  Actual Average Record
Temperature  
Mean Temperature 61 °F -  
Max Temperature 71 °F - - ()
Min Temperature 51 °F - - ()
Degree Days  
Heating Degree Days 4    
Growing Degree Days 11 (Base 50)    
Moisture  
Dew Point 45 °F    
Average Humidity 57    
Maximum Humidity 76    
Minimum Humidity 38    
Precipitation  
Precipitation 0.00 in - - ()
Sea Level Pressure  
Sea Level Pressure 30.07 in    
Wind  
Wind Speed 14 mph ()    
Max Wind Speed 22 mph    
Max Gust Speed -    
T = Trace of Precipitation, MM = Missing Value Source: Averaged Metar Reports

Daily Weather History Graph

Daily Weather History Graph

Search for Another Location

Airport or City:

Trip Planner

Search our weather history database for the weather conditions in past years. The results will help you decide how hot, cold, wet, or windy it might be!

Date:

Astronomy

May. 08, 2014 Rise Set
Actual Time 7:02 AM ACST 5:52 PM ACST
Civil Twilight 6:37 AM ACST 6:17 PM ACST
Nautical Twilight 6:09 AM ACST 6:45 PM ACST
Astronomical Twilight 5:41 AM ACST 7:13 PM ACST
Moon 1:42 PM ACST (5/8) 12:40 AM ACST (5/8)
Length of Visible Light 11h 39m
Length of Day
10h 49m
First Quarter, 59% of the Moon is Illuminated
May 8
First Quarter
May 15
Full
May 21
Last Quarter
May 29
New
Jun 6
First Quarter

Hourly Weather History & Observations

Time (ACST) Temp. Dew Point Humidity Pressure Visibility Wind Dir Wind Speed Gust Speed Precip Events Conditions
1:30 AM 55.4 °F 44.6 °F 67% 30.15 in - NE 11.5 mph - N/A   Unknown
2:30 AM 55.4 °F 44.6 °F 67% 30.12 in - NE 11.5 mph - N/A   Unknown
4:30 AM 51.8 °F 44.6 °F 76% 30.12 in - NE 9.2 mph - N/A   Unknown
5:30 AM 51.8 °F 44.6 °F 76% 30.12 in - NNE 9.2 mph - N/A   Unknown
6:30 AM 51.8 °F 44.6 °F 76% 30.12 in - NE 13.8 mph - N/A   Unknown
7:30 AM 53.6 °F 44.6 °F 72% 30.15 in - NE 18.4 mph - N/A   Unknown
8:30 AM 51.8 °F 44.6 °F 76% 30.12 in - NE 18.4 mph - N/A   Unknown
9:30 AM 59.0 °F 44.6 °F 59% 30.15 in - NE 20.7 mph - N/A   Unknown
10:30 AM 60.8 °F 46.4 °F 59% 30.12 in - NNE 21.9 mph - N/A   Unknown
11:30 AM 64.4 °F 44.6 °F 49% 30.09 in - NNE 21.9 mph - N/A   Unknown
12:30 PM 66.2 °F 46.4 °F 49% 30.06 in - NE 21.9 mph - N/A   Unknown
2:30 PM 69.8 °F 44.6 °F 40% 30.01 in - NNE 21.9 mph - N/A   Unknown
3:30 PM 71.6 °F 44.6 °F 38% 30.01 in - NNE 20.7 mph - N/A   Unknown
4:30 PM 69.8 °F 44.6 °F 40% 29.98 in - NNE 17.3 mph - N/A   Unknown
5:30 PM 68.0 °F 44.6 °F 43% 30.01 in - NNE 16.1 mph - N/A   Unknown
6:30 PM 66.2 °F 46.4 °F 49% 30.01 in - NE 13.8 mph - N/A   Unknown
7:30 PM 64.4 °F 44.6 °F 49% 30.01 in - NE 17.3 mph - N/A   Unknown
8:30 PM 64.4 °F 44.6 °F 49% 30.01 in - NNE 17.3 mph - N/A   Unknown
9:30 PM 62.6 °F 44.6 °F 52% 30.01 in - NNE 18.4 mph - N/A   Unknown
10:30 PM 62.6 °F 44.6 °F 52% 30.01 in - NE 19.6 mph - N/A   Unknown
11:30 PM 62.6 °F 44.6 °F 52% 30.01 in - NNE 15.0 mph - N/A   Mostly Cloudy